This demonstration page uses our WeatherBlox Daily Observations layout. Learn more.

Hourly Observations for November 26, 2016

Temp ( °F °C ) Dew Point ( °F °C ) Humidity (%) Winds ( mph kmh ) Pressure ( in mb ) Visibility ( mi km ) Precip ( " mm )
12:15 am 00:15 Cloudy 50 10 43 6 76 76 undefined N/A 30.24 1024 10 16.09344 0 0
12:35 am 00:35 Mostly Cloudy 50 10 41 5 71 71 undefined N/A 30.21 1023 10 16.09344 0 0
12:55 am 00:55 Mostly Cloudy 48 9 41 5 76 76 undefined N/A 30.21 1023 10 16.09344 0 0
1:15 am 01:15 Mostly Cloudy 48 9 41 5 76 76 undefined N/A 30.21 1023 10 16.09344 0 0
1:35 am 01:35 Cloudy 50 10 41 5 71 71 undefined N/A 30.21 1023 10 16.09344 0 0
1:55 am 01:55 Cloudy 48 9 41 5 76 76 undefined N/A 30.21 1023 10 16.09344 0 0
2:15 am 02:15 Cloudy 48 9 41 5 76 76 undefined N/A 30.21 1023 10 16.09344 0 0
2:35 am 02:35 Mostly Cloudy 48 9 39 4 71 71 undefined N/A 30.21 1023 10 16.09344 0 0
2:55 am 02:55 Mostly Cloudy 46 8 39 4 76 76 undefined N/A 30.21 1023 10 16.09344 0 0
3:15 am 03:15 Mostly Cloudy 46 8 37 3 71 71 undefined N/A 30.18 1022 10 16.09344 0 0
3:35 am 03:35 Clear 46 8 37 3 71 71 undefined N/A 30.18 1022 10 16.09344 0 0
3:55 am 03:55 Clear 45 7 37 3 76 76 undefined N/A 30.18 1022 10 16.09344 0 0
4:15 am 04:15 Clear 45 7 37 3 76 76 undefined N/A 30.21 1023 10 16.09344 0 0
4:35 am 04:35 Clear 45 7 37 3 76 76 undefined N/A 30.21 1023 10 16.09344 0 0
4:55 am 04:55 Clear 45 7 36 2 71 71 undefined N/A 30.21 1023 10 16.09344 0 0
5:15 am 05:15 Clear 43 6 36 2 76 76 undefined N/A 30.21 1023 10 16.09344 0 0
5:35 am 05:35 Partly Cloudy 45 7 36 2 71 71 undefined N/A 30.21 1023 10 16.09344 0 0
5:55 am 05:55 Mostly Cloudy 43 6 36 2 76 76 undefined N/A 30.21 1023 10 16.09344 0 0
6:15 am 06:15 Partly Cloudy 43 6 36 2 76 76 undefined N/A 30.24 1024 10 16.09344 0 0
6:35 am 06:35 Mostly Cloudy 45 7 36 2 71 71 undefined N/A 30.24 1024 10 16.09344 0 0
6:55 am 06:55 Cloudy 45 7 36 2 71 71 undefined N/A 30.24 1024 10 16.09344 0 0
7:15 am 07:15 Mostly Cloudy 45 7 34 1 66 66 undefined N/A 30.24 1024 10 16.09344 0 0
7:35 am 07:35 Partly Cloudy 45 7 34 1 66 66 undefined N/A 30.24 1024 10 16.09344 0 0
7:55 am 07:55 Mostly Cloudy 45 7 34 1 66 66 undefined N/A 30.27 1025 10 16.09344 0 0
8:15 am 08:15 Cloudy 45 7 34 1 66 66 undefined N/A 30.27 1025 10 16.09344 0 0
8:35 am 08:35 Cloudy 46 8 34 1 62 62 undefined N/A 30.27 1025 10 16.09344 0 0
8:55 am 08:55 Mostly Cloudy 46 8 34 1 62 62 undefined N/A 30.27 1025 10 16.09344 0 0
9:15 am 09:15 Mostly Cloudy 46 8 34 1 62 62 undefined N/A 30.24 1024 10 16.09344 0 0
9:35 am 09:35 Cloudy 46 8 34 1 62 62 undefined N/A 30.27 1025 10 16.09344 0 0
9:55 am 09:55 Cloudy 46 8 34 1 62 62 undefined N/A 30.27 1025 10 16.09344 0 0
10:15 am 10:15 Mostly Cloudy 46 8 34 1 62 62 undefined N/A 30.27 1025 10 16.09344 0 0
10:35 am 10:35 Cloudy 46 8 34 1 62 62 undefined N/A 30.27 1025 10 16.09344 0 0
10:55 am 10:55 Mostly Cloudy 48 9 34 1 58 58 undefined N/A 30.27 1025 10 16.09344 0 0
11:15 am 11:15 Partly Cloudy 46 8 34 1 62 62 NW 21 33 30.24 1024 10 16.09344 0 0
11:35 am 11:35 Sunny 48 9 34 1 58 58 NW 18 30 30.24 1024 10 16.09344 0 0
11:55 am 11:55 Mostly Cloudy 48 9 34 1 58 58 NNW 13 20 30.24 1024 10 16.09344 0 0
12:15 pm 12:15 Partly Cloudy 50 10 34 1 54 54 undefined N/A 30.24 1024 10 16.09344 0 0
12:35 pm 12:35 Sunny 50 10 34 1 54 54 NW 24 39 30.24 1024 10 16.09344 0 0
12:55 pm 12:55 Sunny 52 11 34 1 50 50 WNW 20 31 30.21 1023 10 16.09344 0 0
1:15 pm 13:15 Sunny 52 11 34 1 50 50 WNW 21 33 30.21 1023 10 16.09344 0 0
1:35 pm 13:35 Partly Cloudy 50 10 34 1 54 54 NW 20 31 30.21 1023 10 16.09344 0 0
1:55 pm 13:55 Mostly Cloudy 48 9 34 1 58 58 NW 15 24 30.21 1023 10 16.09344 0 0
2:15 pm 14:15 Cloudy 48 9 32 0 54 54 NNW 14 22 30.21 1023 10 16.09344 0 0
2:35 pm 14:35 Cloudy 48 9 34 1 58 58 W 20 31 30.21 1023 10 16.09344 0 0
2:55 pm 14:55 Cloudy 46 8 32 0 57 57 NW 20 31 30.21 1023 10 16.09344 0 0
3:15 pm 15:15 Mostly Cloudy 46 8 34 1 62 62 WNW 16 26 30.21 1023 10 16.09344 0 0
3:35 pm 15:35 Mostly Cloudy 46 8 34 1 62 62 NW 18 30 30.24 1024 10 16.09344 0 0
3:55 pm 15:55 Cloudy 46 8 34 1 62 62 NW 15 24 30.24 1024 10 16.09344 0 0
4:15 pm 16:15 Cloudy 46 8 34 1 62 62 WNW 17 28 30.24 1024 10 16.09344 0 0
4:35 pm 16:35 Cloudy 45 7 34 1 66 66 NW 12 19 30.24 1024 10 16.09344 0 0
4:55 pm 16:55 Cloudy 45 7 32 0 61 61 undefined N/A 30.24 1024 10 16.09344 0 0
5:15 pm 17:15 Cloudy 45 7 32 0 61 61 undefined N/A 30.24 1024 10 16.09344 0 0
5:35 pm 17:35 Mostly Cloudy 45 7 32 0 61 61 undefined N/A 30.24 1024 10 16.09344 0 0
5:55 pm 17:55 Partly Cloudy 45 7 32 0 61 61 undefined N/A 30.24 1024 10 16.09344 0 0
6:15 pm 18:15 Mostly Cloudy 43 6 32 0 66 66 undefined N/A 30.24 1024 10 16.09344 0 0
6:35 pm 18:35 Partly Cloudy 43 6 32 0 66 66 undefined N/A 30.24 1024 10 16.09344 0 0
6:55 pm 18:55 Clear 41 5 32 0 70 70 undefined N/A 30.24 1024 10 16.09344 0 0
7:15 pm 19:15 Clear 41 5 32 0 70 70 undefined N/A 30.24 1024 10 16.09344 0 0
7:35 pm 19:35 Clear 37 3 32 0 81 81 undefined N/A 30.24 1024 10 16.09344 0 0
7:55 pm 19:55 Clear 39 4 32 0 75 75 undefined N/A 30.27 1025 10 16.09344 0 0
8:15 pm 20:15 Partly Cloudy 39 4 34 1 81 81 undefined N/A 30.24 1024 10 16.09344 0 0
8:35 pm 20:35 Clear 39 4 32 0 75 75 undefined N/A 30.27 1025 10 16.09344 0 0
8:55 pm 20:55 Partly Cloudy 37 3 32 0 81 81 undefined N/A 30.27 1025 10 16.09344 0 0
9:15 pm 21:15 Mostly Cloudy 34 1 32 0 93 93 undefined N/A 30.27 1025 10 16.09344 0 0
9:35 pm 21:35 Partly Cloudy 36 2 32 0 87 87 undefined N/A 30.24 1024 10 16.09344 0 0
9:55 pm 21:55 Clear 37 3 32 0 81 81 undefined N/A 30.24 1024 10 16.09344 0 0
10:15 pm 22:15 Clear 39 4 32 0 75 75 undefined N/A 30.24 1024 10 16.09344 0 0
10:35 pm 22:35 Clear 39 4 32 0 75 75 undefined N/A 30.24 1024 10 16.09344 0 0
10:55 pm 22:55 Clear 37 3 32 0 81 81 undefined N/A 30.24 1024 10 16.09344 0 0
11:15 pm 23:15 Clear 37 3 32 0 81 81 undefined N/A 30.24 1024 10 16.09344 0 0
11:35 pm 23:35 Clear 37 3 32 0 81 81 undefined N/A 30.24 1024 10 16.09344 0 0
11:55 pm 23:55 Clear 36 2 32 0 87 87 undefined N/A 30.24 1024 10 16.09344 0 0

Powered by AerisWeather